GW4862 Weather Reports


time (UTC)temp
C
wind
direction
speed
KPH
gust
KPH
rain 1hr
cm
rain 24hr
cm
rain mn
cm
humidity
%
barometer
mb
20260505041422 19 95 3.2 4.8 0.00 0.00 0.00 59 1007.0
20260505040919 19 210 4.8 6.4 0.00 0.00 0.00 59 1007.3
20260505040416 18 316 1.6 1.6 0.00 0.00 0.00 61 1007.0
20260505035913 19 322 0.0 1.6 0.00 0.00 0.00 60 1007.1
20260505035409 19 192 3.2 3.2 0.00 0.00 0.00 60 1007.1
20260505034906 19 1 1.6 3.2 0.00 0.00 0.00 60 1007.0
20260505034403 19 266 3.2 3.2 0.00 0.00 0.00 60 1007.1
20260505033900 19 49 1.6 1.6 0.00 0.00 0.00 60 1007.0
20260505033356 20 7 1.6 3.2 0.00 0.00 0.00 59 1006.8
20260505032855 20 350 0.0 1.6 0.00 0.00 0.00 59 1006.9
20260505032351 19 52 1.6 1.6 0.00 0.00 0.00 59 1006.9
20260505031848 19 255 3.2 3.2 0.00 0.00 0.00 60 1006.9
20260505031344 19 289 1.6 1.6 0.00 0.00 0.00 59 1006.7
20260505030842 19 275 1.6 3.2 0.00 0.00 0.00 60 1006.8
20260505030338 20 154 4.8 4.8 0.00 0.00 0.00 59 1006.6
20260505025833 19 321 1.6 1.6 0.00 0.00 0.00 59 1006.7
20260505025331 19 328 1.6 1.6 0.00 0.00 0.00 59 1006.6
20260505024829 18 351 1.6 1.6 0.00 0.00 0.00 60 1006.5
20260505024327 18 349 0.0 0.0 0.00 0.00 0.00 62 1006.7
20260505023824 18 6 1.6 1.6 0.00 0.00 0.00 61 1006.5
20260505023321 18 344 0.0 1.6 0.00 0.00 0.00 60 1006.4
20260505022818 18 347 1.6 1.6 0.00 0.00 0.00 61 1006.5
20260505022315 18 358 1.6 1.6 0.00 0.00 0.00 60 1006.5
20260505021812 18 345 0.0 0.0 0.00 0.00 0.00 62 1006.4
20260505021309 18 348 0.0 0.0 0.00 0.00 0.00 61 1006.1
20260505020804 18 349 0.0 0.0 0.00 0.00 0.00 61 1006.2
20260505020300 18 346 0.0 0.0 0.00 0.00 0.00 61 1006.3
20260505015757 18 342 0.0 0.0 0.00 0.00 0.00 60 1006.0
20260505015254 18 359 0.0 0.0 0.00 0.00 0.00 60 1006.2
20260505014751 19 350 0.0 0.0 0.00 0.00 0.00 60 1005.9
20260505014249 19 346 0.0 0.0 0.00 0.00 0.00 59 1006.0
20260505013745 19 348 0.0 1.6 0.00 0.00 0.00 59 1006.2
20260505013242 19 354 0.0 0.0 0.00 0.00 0.00 59 1005.9
20260505012741 20 346 0.0 1.6 0.00 0.00 0.00 57 1006.0
20260505012238 20 0 0.0 0.0 0.00 0.00 0.00 57 1005.9
20260505011733 20 353 0.0 0.0 0.00 0.00 0.00 58 1005.9
20260505011231 20 347 0.0 0.0 0.00 0.00 0.00 56 1005.8
20260505010726 20 280 1.6 3.2 0.00 0.00 0.00 57 1005.7
20260505010223 20 351 0.0 1.6 0.00 0.00 0.00 56 1005.9
20260505005719 20 348 1.6 1.6 0.00 0.00 0.00 55 1005.7
20260505005216 21 297 1.6 1.6 0.00 0.00 0.00 55 1005.8
20260505004713 21 339 1.6 1.6 0.00 0.00 0.00 53 1005.8
20260505004210 21 339 0.0 0.0 0.00 0.00 0.00 53 1005.8
20260505003707 21 93 3.2 3.2 0.00 0.00 0.00 53 1005.7
20260505003205 21 353 1.6 1.6 0.00 0.00 0.00 53 1005.7
20260505002701 21 207 3.2 4.8 0.00 0.00 0.00 52 1005.8
20260505002159 21 342 1.6 1.6 0.00 0.00 0.00 51 1005.7
20260505001655 21 27 1.6 1.6 0.00 0.00 0.00 51 1005.9
20260505001153 22 156 3.2 4.8 0.00 0.00 0.00 49 1005.9
20260505000650 21 206 3.2 4.8 0.00 0.00 0.00 49 1006.1
20260505000148 21 323 1.6 1.6 0.00 0.00 0.00 50 1006.0
20260504235644 22 356 0.0 1.6 0.00 0.00 0.00 49 1006.2
20260504235140 22 315 0.0 1.6 0.00 0.00 0.00 50 1006.2
20260504234638 22 13 1.6 1.6 0.00 0.00 0.00 49 1006.2
20260504234135 22 263 3.2 3.2 0.00 0.00 0.00 47 1006.2
20260504233631 22 62 1.6 1.6 0.00 0.00 0.00 48 1006.4
20260504233127 23 312 0.0 1.6 0.00 0.00 0.00 47 1006.3
20260504232625 23 193 4.8 4.8 0.00 0.00 0.00 46 1006.3
20260504232121 23 173 3.2 4.8 0.00 0.00 0.00 47 1006.4
20260504231618 23 242 3.2 3.2 0.00 0.00 0.00 45 1006.3
20260504231114 23 309 3.2 4.8 0.00 0.00 0.00 46 1006.4
20260504230610 23 108 3.2 3.2 0.00 0.00 0.00 46 1006.3
20260504230109 23 38 3.2 3.2 0.00 0.00 0.00 46 1006.4
20260504225607 23 152 6.4 9.7 0.00 0.00 0.00 45 1006.4
20260504225103 23 270 4.8 4.8 0.00 0.00 0.00 46 1006.6
20260504224600 23 183 4.8 9.7 0.00 0.00 0.00 45 1006.7
20260504224057 23 178 11.3 17.7 0.00 0.00 0.00 46 1006.3
20260504223554 23 192 4.8 4.8 0.00 0.00 0.00 50 1006.5
20260504223050 23 232 4.8 4.8 0.00 0.00 0.00 50 1006.5
20260504222547 23 72 1.6 3.2 0.00 0.00 0.00 53 1006.3
20260504222044 23 342 1.6 1.6 0.00 0.00 0.00 52 1006.5
20260504221542 23 255 3.2 3.2 0.00 0.00 0.00 51 1006.5
20260504221038 23 294 1.6 1.6 0.00 0.00 0.00 52 1006.7
20260504220534 23 0 1.6 1.6 0.00 0.00 0.00 52 1006.9
20260504220032 23 273 3.2 3.2 0.00 0.00 0.00 50 1006.8
20260504215528 23 3 1.6 3.2 0.00 0.00 0.00 52 1007.0
20260504215026 23 307 1.6 3.2 0.00 0.00 0.00 50 1006.8
20260504214521 23 301 1.6 3.2 0.00 0.00 0.00 50 1006.9
20260504214018 23 245 3.2 3.2 0.00 0.00 0.00 49 1007.0
20260504213514 23 282 3.2 4.8 0.00 0.00 0.00 50 1007.1
20260504213012 23 325 0.0 0.0 0.00 0.00 0.00 50 1007.0
20260504212507 23 327 0.0 0.0 0.00 0.00 0.00 51 1007.1
20260504212005 23 295 1.6 3.2 0.00 0.00 0.00 50 1007.1
20260504211501 23 226 6.4 9.7 0.00 0.00 0.00 49 1007.3
20260504210959 23 113 3.2 4.8 0.00 0.00 0.00 51 1007.5
20260504210456 23 266 3.2 3.2 0.00 0.00 0.00 51 1007.4
20260504205952 23 148 3.2 4.8 0.00 0.00 0.00 51 1007.4
20260504205450 24 168 3.2 4.8 0.00 0.00 0.00 48 1007.5
20260504204948 25 306 0.0 1.6 0.00 0.00 0.00 47 1007.6
20260504204446 24 325 1.6 1.6 0.00 0.00 0.00 51 1007.9
20260504203945 24 186 6.4 6.4 0.00 0.00 0.00 49 1007.7
20260504203442 23 264 1.6 3.2 0.00 0.00 0.00 49 1007.8
20260504202938 24 331 0.0 0.0 0.00 0.00 0.00 49 1007.8
20260504202435 24 320 1.6 1.6 0.00 0.00 0.00 47 1007.9
20260504201932 23 291 1.6 1.6 0.00 0.00 0.00 51 1008.0
20260504201429 23 291 1.6 3.2 0.00 0.00 0.00 50 1008.1
20260504200926 23 274 4.8 6.4 0.00 0.00 0.00 49 1008.1
20260504200423 23 214 3.2 4.8 0.00 0.00 0.00 50 1008.2
20260504195920 23 273 3.2 3.2 0.00 0.00 0.00 51 1008.2
20260504195416 23 205 6.4 9.7 0.00 0.00 0.00 51 1008.5
20260504194912 23 308 3.2 3.2 0.00 0.00 0.00 51 1008.6
20260504194408 23 281 4.8 4.8 0.00 0.00 0.00 52 1008.8
20260504193904 23 198 3.2 4.8 0.00 0.00 0.00 52 1008.8
20260504193401 22 344 1.6 3.2 0.00 0.00 0.00 55 1009.0
20260504192900 22 334 1.6 1.6 0.00 0.00 0.00 56 1008.7
20260504192357 22 298 1.6 1.6 0.00 0.00 0.00 55 1008.8
20260504191856 22 279 3.2 4.8 0.00 0.00 0.00 55 1009.1
20260504191354 21 126 6.4 11.3 0.00 0.00 0.00 57 1009.1
20260504190849 21 196 3.2 4.8 0.00 0.00 0.00 57 1009.2
20260504190345 20 275 1.6 3.2 0.00 0.00 0.00 58 1009.3
20260504185842 20 300 1.6 1.6 0.00 0.00 0.00 60 1009.4
20260504185339 20 53 3.2 3.2 0.00 0.00 0.00 60 1009.2
20260504184834 20 319 1.6 1.6 0.00 0.00 0.00 59 1009.4
20260504184331 20 309 3.2 3.2 0.00 0.00 0.00 58 1009.3
20260504183826 20 310 0.0 1.6 0.00 0.00 0.00 59 1009.5
20260504183324 20 57 3.2 3.2 0.00 0.00 0.00 57 1009.1
20260504182822 20 149 4.8 4.8 0.00 0.00 0.00 56 1009.1
20260504182319 20 276 3.2 4.8 0.00 0.00 0.00 57 1009.2
20260504181816 21 119 3.2 4.8 0.00 0.00 0.00 56 1009.0
20260504181313 21 64 3.2 3.2 0.00 0.00 0.00 56 1008.8
20260504180812 21 5 3.2 3.2 0.00 0.00 0.00 56 1008.9
20260504180310 21 190 4.8 9.7 0.00 0.00 0.00 57 1008.8
20260504175808 21 153 11.3 16.1 0.00 0.00 0.00 54 1008.7
20260504175304 21 177 3.2 4.8 0.00 0.00 0.00 57 1008.8
20260504174803 21 136 8.0 12.9 0.00 0.00 0.00 54 1008.7
20260504174300 21 246 3.2 3.2 0.00 0.00 0.00 57 1009.0
20260504173756 20 332 1.6 3.2 0.00 0.00 0.00 57 1009.0
20260504173253 20 263 4.8 6.4 0.00 0.00 0.00 57 1009.0
20260504172750 20 24 3.2 6.4 0.00 0.00 0.00 58 1008.8
20260504172247 20 189 3.2 3.2 0.00 0.00 0.00 58 1008.4
20260504171743 20 183 3.2 3.2 0.00 0.00 0.00 58 1008.3
20260504171240 20 203 3.2 4.8 0.00 0.00 0.00 58 1008.7
20260504170737 20 38 3.2 3.2 0.00 0.00 0.00 58 1008.7
20260504170234 20 277 3.2 3.2 0.00 0.00 0.00 60 1008.9
20260504160153 20 265 1.6 3.2 0.00 0.00 0.00 57 1009.5
20260504151120 17 346 1.6 1.6 0.00 0.00 0.00 62 1009.6
20260504150618 16 345 0.0 0.0 0.00 0.00 0.00 64 1009.6
20260504150115 16 257 3.2 3.2 0.00 0.00 0.00 62 1009.6
20260504141043 15 122 3.2 4.8 0.00 0.00 0.00 63 1009.7
20260504140540 15 175 4.8 6.4 0.00 0.00 0.00 63 1009.8
20260504130504 13 345 1.6 1.6 0.00 0.00 0.00 67 1010.4
20260504110351 10 355 0.0 1.6 0.00 0.00 0.00 66 1010.1
20260504100309 9 346 0.0 0.0 0.00 0.00 0.00 70 1010.4
20260504081708 10 354 0.0 0.0 0.00 0.00 0.00 65 1011.0
20260504081204 10 341 0.0 0.0 0.00 0.00 0.00 66 1011.3
20260504080700 9 353 0.0 0.0 0.00 0.00 0.00 66 1011.2
20260504080157 9 359 1.6 1.6 0.00 0.00 0.00 66 1011.2
20260504070125 10 28 1.6 3.2 0.00 0.00 0.00 63 1011.6
20260504050514 9 350 0.0 0.0 0.00 0.00 0.00 66 1012.6
20260504050011 9 351 0.0 0.0 0.00 0.00 0.00 66 1012.7
20260504045507 9 347 0.0 0.0 0.00 0.00 0.00 66 1012.7
20260504045003 9 350 0.0 0.0 0.00 0.00 0.00 67 1012.7
20260504044500 9 352 0.0 0.0 0.00 0.00 0.00 66 1012.7
20260504043957 9 351 0.0 0.0 0.00 0.00 0.00 66 1012.7
20260504043454 9 351 0.0 0.0 0.00 0.00 0.00 66 1012.8
20260504042952 9 352 0.0 0.0 0.00 0.00 0.00 65 1012.7
20260504042448 9 351 0.0 0.0 0.00 0.00 0.00 65 1012.8
20260504041945 9 345 0.0 0.0 0.00 0.00 0.00 66 1013.0